GW3496 Weather Reports


time (UTC)temp
C
wind
direction
speed
KPH
gust
KPH
rain 1hr
cm
rain 24hr
cm
rain mn
cm
humidity
%
barometer
mb
20260503003044 13 355 6.4 14.5 0.00 0.00 0.00 45 1010.2
20260503001548 13 9 4.8 16.1 0.00 0.00 0.00 44 1010.0
20260503000044 13 360 4.8 14.5 0.00 0.00 0.00 44 1009.9
20260502234546 13 20 6.4 16.1 0.00 0.00 0.00 44 1009.5
20260502233039 13 9 9.7 19.3 0.00 0.00 0.00 42 1009.4
20260502231532 14 9 12.9 20.9 0.00 0.00 0.00 42 1009.3
20260502230033 14 32 9.7 19.3 0.00 0.00 0.00 42 1009.1
20260502224543 15 18 6.4 17.7 0.00 0.00 0.00 42 1009.1
20260502223040 15 304 4.8 16.1 0.00 0.00 0.00 42 1009.2
20260502221535 15 9 1.6 11.3 0.00 0.00 0.00 40 1009.1
20260502220030 15 51 6.4 14.5 0.00 0.00 0.00 41 1009.0
20260502214540 15 59 12.9 24.1 0.00 0.00 0.00 40 1009.4
20260502213034 16 51 16.1 25.7 0.00 0.00 0.00 38 1009.3
20260502211534 15 28 12.9 22.5 0.00 0.00 0.00 39 1009.3
20260502210037 16 326 9.7 25.7 0.00 0.00 0.00 37 1009.3
20260502204532 16 310 8.0 27.4 0.00 0.00 0.00 38 1009.1
20260502203046 15 290 1.6 14.5 0.00 0.00 0.00 40 1009.3
20260502201538 15 350 16.1 30.6 0.00 0.00 0.00 40 1009.2
20260502200034 15 342 9.7 19.3 0.00 0.00 0.00 41 1009.5
20260502194535 15 52 3.2 20.9 0.00 0.00 0.00 42 1009.4
20260502193035 15 11 8.0 24.1 0.00 0.00 0.00 43 1009.8
20260502191536 15 11 6.4 29.0 0.00 0.00 0.00 43 1009.9
20260502190044 14 334 9.7 19.3 0.00 0.00 0.00 43 1010.1
20260502184537 14 26 9.7 20.9 0.00 0.00 0.00 43 1010.5
20260502183033 14 299 4.8 16.1 0.00 0.00 0.00 45 1010.8
20260502181539 14 333 11.3 19.3 0.00 0.00 0.00 44 1011.0
20260502163046 13 171 9.7 19.3 0.00 0.00 0.00 46 1011.9
20260502161534 13 34 6.4 17.7 0.00 0.00 0.00 48 1011.9
20260502151552 12 24 6.4 16.1 0.00 0.00 0.00 51 1012.3
20260502123038 9 9 17.7 32.2 0.00 0.00 0.00 63 1011.8
20260502121538 9 302 14.5 27.4 0.00 0.00 0.00 64 1011.6
20260502114543 9 339 4.8 20.9 0.00 0.00 0.00 65 1011.9
20260502113041 9 334 11.3 20.9 0.00 0.00 0.00 66 1012.1
20260502111546 9 30 11.3 24.1 0.00 0.00 0.00 67 1012.0
20260502110053 9 348 11.3 30.6 0.00 0.00 0.00 67 1012.0
20260502104545 10 329 14.5 24.1 0.00 0.00 0.00 68 1011.8
20260502103043 10 19 8.0 17.7 0.00 0.00 0.00 69 1011.5
20260502101558 10 23 8.0 16.1 0.00 0.00 0.00 69 1011.0
20260502100123 10 5 4.8 17.7 0.00 0.00 0.00 71 1010.8
20260502090132 11 332 6.4 17.7 0.00 0.00 0.00 74 1010.2
20260502070111 11 31 4.8 8.0 0.00 0.00 0.00 77 1009.7
20260502064606 12 32 0.0 0.0 0.00 0.00 0.00 77 1009.9
20260502063108 12 43 0.0 0.0 0.00 0.00 0.00 76 1010.2
20260502061612 12 25 0.0 0.0 0.00 0.00 0.00 75 1010.3
20260502060112 12 28 0.0 0.0 0.00 0.00 0.00 74 1010.8
20260502055018 12 65 0.0 6.4 0.00 0.00 0.00 73 1010.6
20260502053029 12 32 3.2 8.0 0.00 0.00 0.00 72 1010.3
20260502051532 13 10 4.8 16.1 0.00 0.00 0.00 70 1010.4
20260502050032 13 342 9.7 16.1 0.00 0.00 0.00 66 1010.2
20260502044530 13 323 4.8 9.7 0.00 0.00 0.00 64 1010.2
20260502043031 13 340 1.6 6.4 0.00 0.00 0.00 61 1010.3
20260502041533 13 351 3.2 8.0 0.00 0.00 0.00 61 1010.2
20260502040038 13 343 3.2 9.7 0.00 0.00 0.00 62 1010.1
20260502034536 13 15 1.6 6.4 0.00 0.00 0.00 62 1009.6
20260502033034 15 87 0.0 3.2 0.00 0.00 0.00 56 1009.1
20260502031539 15 149 0.0 9.7 0.00 0.00 0.00 54 1009.1
20260502030034 15 189 3.2 9.7 0.00 0.00 0.00 52 1008.8
20260502024533 15 215 3.2 9.7 0.00 0.00 0.00 51 1008.9
20260502023036 15 196 6.4 9.7 0.00 0.00 0.00 50 1008.9
20260502021535 16 195 8.0 17.7 0.00 0.00 0.00 50 1009.0
20260502020041 16 173 3.2 9.7 0.00 0.00 0.00 48 1008.8
20260502014534 16 171 4.8 9.7 0.00 0.00 0.00 47 1008.8
20260502013033 16 214 3.2 12.9 0.00 0.00 0.00 46 1008.7
20260502011535 17 148 3.2 9.7 0.00 0.00 0.00 44 1008.6
20260502010038 17 176 1.6 8.0 0.00 0.00 0.00 43 1008.3
20260502004535 17 176 6.4 11.3 0.00 0.00 0.00 42 1008.0